Location: North Smoke Tower Site
(30.5430°N, 82.3390°W)
Time: 01:53:53
(UTC-04:00)

Cosmos 1980 Rocket - Visible Passes

Search period start: 22 August 2014 00:00
Search period end: 01 September 2014 00:00
Orbit: 828 x 852 km, 71.0° (Epoch: 21 August)

Date Brightness Start Highest point End Pass type
(mag) Time Alt. Az. Time Alt. Az. Time Alt. Az.
22 Aug 4.7 04:10:34 10° SE 04:13:14 14° E 04:16:03 10° ENE visible
22 Aug 2.3 05:52:24 17° SW 05:56:38 56° WNW 06:02:11 10° N visible
23 Aug 4.6 03:56:07 12° ESE 03:57:42 13° E 04:00:06 10° ENE visible
23 Aug 2.2 05:37:57 26° SW 05:41:02 61° WNW 05:46:38 10° NNE visible
24 Aug 4.7 03:41:36 12° ESE 03:42:09 12° E 03:44:04 10° ENE visible
24 Aug 2.2 05:23:25 39° SW 05:25:27 65° WNW 05:31:04 10° NNE visible
25 Aug 4.9 03:27:00 11° E 03:27:00 11° E 03:27:50 10° E visible
25 Aug 2.1 05:08:49 56° SW 05:09:52 70° WNW 05:15:31 10° NNE visible
26 Aug 2.0 04:54:09 75° W 04:54:17 76° WNW 04:59:57 10° NNE visible
27 Aug 2.3 04:39:25 68° N 04:39:25 68° N 04:44:22 10° NNE visible
28 Aug 2.8 04:24:38 51° NNE 04:24:38 51° NNE 04:28:48 10° NNE visible
29 Aug 3.4 04:09:48 38° NNE 04:09:48 38° NNE 04:13:13 10° NNE visible
29 Aug 4.2 05:51:35 10° WNW 05:52:14 10° NW 05:52:53 10° NW visible
30 Aug 3.8 03:54:55 30° NNE 03:54:55 30° NNE 03:57:38 10° NNE visible
30 Aug 4.2 05:36:42 11° NW 05:36:42 11° NW 05:38:09 10° NW visible
31 Aug 4.2 03:39:59 23° NNE 03:39:59 23° NNE 03:42:02 10° NNE visible
31 Aug 4.3 05:21:47 12° NW 05:21:47 12° NW 05:23:03 10° NW visible
